Location: *
(43.0833°N, 13.0500°E)
Time: 12:38:15
(UTC+00:00)

Cosmos 2221 - Pass Details

Date: 15 November 2019
Orbit: 593 x 615 km, 82.5° (Epoch: 14 December)

Event Time Altitude Azimuth Distance (km) Brightness Sun altitude
Rises 16:43:46 0° 202° (SSW) 2,836 6.5 -11.0°
Reaches altitude 10° 16:46:02 10° 208° (SSW) 1,941 5.7 -11.4°
Maximum altitude 16:50:09 46° 282° (WNW) 818 3.7 -12.1°
Drops below altitude 10° 16:54:22 10° 356° (N) 1,970 5.0 -12.9°
Sets 16:56:41 0° 3° (N) 2,882 5.8 -13.3°
